Flag for Switzerland Weather past 2 weeks in Winterthur, Switzerland

37 °F

Scattered showers. Broken clouds.

Feels Like: 37 °F
Forecast: 26 / 36 °F
Wind: 1 mph from North

Location: Zurich-Kloten

Current Time: Nov 26, 2015 at 5:01:55 PM

Latest Report: Nov 26, 2015 at 4:20 PM

Visibility: N/A

Pressure: 30.04 "Hg

Humidity: 100%

Dew point: 37 °F

Location of WinterthurLocation

Historic Weather in Winterthur — Graph


Winterthur temperature yesterday

Maximum temperature yesterday: 39 °F (at 1:20 PM)
Minimum temperature yesterday: 32 °F (at 5:20 AM)
Average temperature yesterday: 36 °F

Past Weeks' High & Low Weather Summary

High64 °F (Nov 15, 1:50 PM)100% (Nov 11, 6:50 PM)30.51 "Hg (Nov 11, 6:50 PM)
Low21 °F (Nov 24, 5:20 AM)42% (Nov 15, 11:20 AM)29.42 "Hg (Nov 21, 1:50 PM)
Average45 °F84%30.09 "Hg
* Reported Nov 11 3:20 PM — Nov 26 3:50 PM, Winterthur, Weather by CustomWeather, © 2015

Note: Actual official high and low records may vary slightly from our data, if they occured in-between our weather recording intervals... More about our weather records


Winterthur weather history for previous 24 hours

Time TempWeatherWind HumidityBarometerVisibility
3:50 PM
Thu, Nov 26
37 °FScattered showers. Broken clouds.1 mph100%30.01 "HgN/A
3:20 PM37 °FScattered showers. Broken clouds.1 mph100%30.01 "HgN/A
2:50 PM39 °FSprinkles. Broken clouds.1 mph93%30.01 "HgN/A
2:20 PM37 °FSprinkles. Broken clouds.3 mph93%30.01 "HgN/A
1:50 PM37 °FScattered showers. Broken clouds.2 mph93%29.98 "HgN/A
1:20 PM37 °FScattered showers. Broken clouds.5 mph93%29.98 "HgN/A
12:50 PM37 °FSprinkles. Broken clouds.7 mph100%29.98 "HgN/A
12:20 PM37 °FScattered showers. Broken clouds.7 mph100%29.98 "HgN/A
11:50 AM37 °FLight rain. Broken clouds.5 mph93%29.98 "HgN/A
11:20 AM37 °FScattered showers. Broken clouds.7 mph93%29.98 "HgN/A
10:50 AM37 °FScattered showers. Broken clouds.5 mph93%29.98 "HgN/A
10:20 AM37 °FPartly sunny.1 mph93%29.95 "HgN/A
9:50 AM36 °FBroken clouds.2 mph100%29.95 "HgN/A
9:20 AM36 °FBroken clouds.2 mph100%29.92 "Hg6 mi
8:50 AM36 °FBroken clouds.No wind100%29.92 "Hg5 mi
8:20 AM36 °FLight rain. Broken clouds.2 mph93%29.92 "Hg4 mi
7:20 AM36 °FScattered showers. Passing clouds.5 mph93%29.89 "Hg5 mi
6:50 AM34 °FPartly cloudy.3 mph100%29.86 "Hg5 mi
6:20 AM34 °FPartly cloudy.3 mph100%29.86 "Hg4 mi
5:50 AM34 °FPassing clouds.1 mph100%29.86 "Hg4 mi
5:20 AM34 °FPassing clouds.2 mph100%29.83 "Hg4 mi
4:50 AM34 °FPassing clouds.1 mph100%29.83 "Hg4 mi
4:20 AM34 °FPartly cloudy.2 mph100%29.83 "Hg4 mi
3:50 AM34 °FPartly cloudy.1 mph100%29.80 "Hg4 mi
3:20 AM34 °FLight rain. Partly cloudy.5 mph100%29.80 "Hg3 mi
2:50 AM34 °FLight rain. Partly cloudy.6 mph100%29.80 "Hg3 mi
2:20 AM36 °FRain. Partly cloudy.7 mph100%29.77 "Hg2 mi
12:50 AM37 °FLight rain. Passing clouds.2 mph100%29.77 "Hg4 mi
12:20 AM37 °FLight rain. Passing clouds.2 mph100%29.77 "Hg6 mi
11:50 PM
Wed, Nov 25
37 °FPassing clouds.No wind100%29.74 "HgN/A
11:20 PM37 °FPassing clouds.2 mph100%29.74 "HgN/A
10:50 PM36 °FPassing clouds.3 mph100%29.74 "Hg6 mi
10:20 PM36 °FPartly cloudy.1 mph100%29.77 "Hg5 mi
9:50 PM36 °FFog.2 mph100%29.77 "Hg5 mi
9:20 PM36 °FPartly cloudy.5 mph100%29.77 "Hg6 mi
8:50 PM37 °FPartly cloudy.3 mph93%29.77 "HgN/A
8:20 PM37 °FPassing clouds.2 mph100%29.77 "Hg6 mi
7:50 PM37 °FPassing clouds.3 mph100%29.77 "Hg6 mi
7:20 PM37 °FLight rain. Partly cloudy.1 mph100%29.77 "Hg6 mi
6:50 PM39 °FPassing clouds.2 mph93%29.77 "HgN/A
6:20 PM39 °FPassing clouds.3 mph93%29.77 "HgN/A
5:50 PM39 °FPartly cloudy.5 mph93%29.77 "HgN/A
5:20 PM37 °FPartly cloudy.3 mph100%29.77 "HgN/A
Weather by CustomWeather, © 2015

See weather overviewHow to use our weather pages